Location: Plum
(40.5000°N, 79.7500°W)
Time: 16:28:09
(UTC-04:00)

MOZ.5/SAFIR/RUBIN 5/SL-8 - Visible Passes

Search period start: 30 March 2017 00:00
Search period end: 09 April 2017 00:00
Orbit: 677 x 707 km, 97.9° (Epoch: 29 March)

Date Brightness Start Highest point End Pass type
(mag) Time Alt. Az. Time Alt. Az. Time Alt. Az.
30 Mar 5.7 03:46:31 26° NE 03:46:31 26° NE 03:49:14 10° N visible
30 Mar 5.5 05:25:11 17° NW 05:25:11 17° NW 05:26:36 10° NW visible
31 Mar 4.8 04:26:28 38° N 04:26:28 38° N 04:29:22 10° N visible
01 Apr 6.1 03:27:46 20° NE 03:27:46 20° NE 03:30:37 10° NNE visible
01 Apr 5.0 05:06:25 26° NW 05:06:25 26° NW 05:08:50 10° NNW visible
02 Apr 4.9 04:07:43 41° NNE 04:07:43 41° NNE 04:11:06 10° N visible
02 Apr 5.7 05:46:22 12° WNW 05:46:22 12° WNW 05:47:12 10° NW visible
03 Apr 6.5 03:08:59 14° ENE 03:09:14 14° ENE 03:11:40 10° NNE visible
03 Apr 4.4 04:47:39 42° NW 04:47:39 42° NW 04:50:53 10° NNW visible
04 Apr 5.3 03:48:56 33° ENE 03:48:56 33° ENE 03:52:43 10° N visible
04 Apr 5.2 05:27:36 20° WNW 05:27:36 20° WNW 05:29:52 10° NW visible
05 Apr 4.0 04:28:53 62° N 04:28:53 62° N 04:32:46 10° NNW visible
06 Apr 5.9 03:30:11 23° ENE 03:30:32 23° ENE 03:34:08 10° NNE visible
06 Apr 4.6 05:08:51 32° WNW 05:08:51 32° WNW 05:12:10 10° NNW visible
07 Apr 4.3 04:10:08 56° ENE 04:10:08 56° ENE 04:14:33 10° N visible
07 Apr 5.6 05:48:48 13° WNW 05:48:48 13° WNW 05:50:18 10° WNW visible
08 Apr 6.4 03:11:26 14° E 03:12:35 16° ENE 03:15:18 10° NNE visible
08 Apr 3.9 04:50:05 53° WNW 04:50:05 53° WNW 04:54:15 10° NNW visible
